User: anonymous   Login
Location: Unspecified
(0.0000°N, 0.0000°E)
Time: 09:01:49
(UTC+00:00)
Language:

STARLINK-11466 [DTC] - Orbit

View from above orbital plane
View from above orbital plane
View from above satellite
View from above satellite

Ground track
Ground track

The orbit is defined by the following mean orbital elements,

1 62220U          26145.24957472 +.00000000 +00000-0 +19703-2 0 00005
2 62220  53.1564  84.0346 0001034 101.5905 258.5229 15.69812448    03
Epoch (UTC): 25 May 2026 05:59:23
Eccentricity: 0.0001034
inclination: 53.1564°
perigee height: 359 km
apogee height: 360 km
right ascension of ascending node: 84.0346°
argument of perigee: 101.5905°
revolutions per day: 15.69812448
mean anomaly at epoch: 258.5229°

The dashed part of the orbit path shows where the satellite is in the earth's shadow,  

DLR